SCP
0 -0 -0 0 0 0 0 0 0 0 -0 -0 -0 0 -0 0 0 0 0 0 0 0 -0 -0 -0 0 0 -0 -0 -0 -0 -0 -0 -0 -0 0 -0 0 -0 0 -0 -0 0 0
-0 -0 0 0 0 0 0 0 0 0 0 -0 0 0 0 0 0 0 0 0 0 0 0 -0 -0 -0 -0 -0 -0 -0 -0 0 0 0 -0 -0 -0 0 0 0 0 -0 -0 0
-0 0 0 0 0 0 0 0 0 0 0 -0 -0 -0 -0 -0 0 0 0 0 0 0 -0 0 0 0 -0 -0 -0 -0 -0 0 0 0 -0 0 -0 -0 -0 -0 -0 0 0 0
-0 0 0 0 0 0 -0 0 0 0 0 0 -0 0 0 -0 0 0 0 0 0 0 -0 -0 0 0 -0 0 0 0 -0 0 -0 0 -0 -0 -0 -0 0 0 0 0 0 0
-0 0 -0 -0 0 0 0 0 0 0 0 -0 0 -0 0 0 0 1 1 0 0 0 0 0 0 0 -0 0 0 0 0 0 -0 -0 0 0 0 0 0 0 0 -0 -0 0
0 0 0 0 0 0 0 0 0 0 -0 -0 0 0 0 0 0 1 1 0 0 0 0 0 -0 0 0 0 -0 0 -0 -0 -0 -0 0 0 0 0 0 0 0 0 0 0
0 0 0 0 0 0 -0 0 -0 -0 0 0 0 -0 -0 -0 0 0 1 0 0 -0 0 0 0 0 -0 0 -0 -0 -0 -0 -0 0 0 0 0 0 0 0 0 0 0 0
0 0 -0 -0 0 -0 -0 -0 -0 0 -0 0 0 -0 0 -0 0 1 0 0 0 -0 -0 0 0 0 0 -0 -0 -0 -0 0 0 0 0 0 0 0 -0 0 0 -0 -0 -0
0 0 0 0 0 0 0 -0 0 -0 -0 -0 0 -0 -0 0 0 0 0 0 0 -0 -0 0 0 -0 -0 -0 -0 -0 0 0 0 0 0 0 0 0 0 0 0 0 0 0
0 0 0 0 0 0 0 0 -0 -0 0 -0 0 0 0 0 0 0 0 0 0 -0 -0 -0 -0 -0 -0 -0 0 0 0 0 0 0 0 0 0 0 0 0 0 0 0 0
0 0 0 0 0 0 0 -0 -0 0 0 -0 -0 0 0 0 0 0 0 0 0 -0 -0 0 0 0 0 0 0 0 0 0 0 0 0 0 0 0 0 0 0 0 0 0
-0 0 0 -0 0 0 0 0 -0 -0 0 0 0 0 0 0 0 1 0 0 0 0 -0 -0 0 0 0 0 0 0 0 0 0 0 0 0 0 0 0 0 0 0 0 0
0 0 0 0 0 0 0 0 -0 0 0 0 0 0 0 0 0 0 -0 -0 0 -0 -0 -0 0 0 0 0 0 0 0 0 0 0 0 0 0 0 0 0 0 0 0 0
0 -0 -0 0 0 0 0 0 0 -0 0 0 0 0 0 0 0 0 -0 -0 -0 -0 -0 -0 0 0 0 0 0 0 0 0 0 0 0 0 0 0 0 0 0 0 0 0
0 0 -0 0 0 0 0 0 0 0 0 0 0 0 0 0 0 -0 -0 -0 -0 -0 -0 -0 0 0 0 0 0 0 0 0 0 0 0 0 0 0 0 0 0 0 0 0
-0 0 0 0 0 0 0 0 0 0 0 0 0 0 0 0 0 0 0 -0 0 0 0 0 0 0 0 0 0 0 0 0 0 0 0 0 0 0 0 0 0 0 0 0
0 0 0 0 0 0 0 0 0 0 0 0 0 0 0 0 0 0 0 0 0 0 0 0 0 0 0 0 0 0 0 0 0 0 0 0 0 0 0 0 0 0 0 0
0 0 0 0 0 0 0 0 0 0 0 0 0 0 0 0 0 0 0 0 0 0 0 0 0 0 0 0 0 0 0 0 0 0 0 0 0 0 0 0 0 0 0 0
0 0 0 0 0 0 0 0 0 0 0 0 0 0 0 0 0 0 0 0 0 0 0 0 0 0 0 0 0 0 0 0 0 0 0 0 0 0 0 0 0 0 0 0
0 0 0 0 0 0 0 0 0 0 0 0 0 0 0 0 0 1 0 0 0 0 0 0 0 0 0 0 0 0 0 0 0 0 0 0 0 0 0 0 0 0 0 0
0 0 0 0 0 0 0 0 0 0 0 0 0 0 0 0 1 1 0 0 1 0 0 0 0 0 0 0 0 0 0 0 0 0 0 0 0 0 0 0 0 0 0 0
0 0 0 0 0 0 0 0 0 0 0 0 0 0 0 0 0 0 0 0 0 0 0 0 0 0 0 0 0 0 0 0 0 0 0 0 0 0 0 0 0 0 0 0
0 0 0 0 0 0 0 0 0 0 0 0 0 0 0 0 0 0 0 0 0 0 0 0 0 0 0 0 0 0 0 0 0 0 0 0 0 0 0 0 0 0 0 0
0 0 0 0 0 0 0 0 0 0 0 0 0 0 0 0 0 0 0 0 0 0 0 0 0 0 0 0 0 0 0 0 0 0 0 0 0 0 0 0 0 0 0 0
0 0 0 0 0 0 0 0 0 0 0 0 0 0 0 0 0 0 0 0 0 0 0 0 0 0 0 0 0 0 0 0 0 0 0 0 0 0 0 0 0 0 0 0
0 0 0 0 1 1 1 0 0 0 1 0 0 0 0 0 0 0 0 0 0 0 0 0 0 0 0 0 0 0 0 0 0 0 0 0 0 0 0 0 0 0 0 0
Wind_Speed_500mb
11 19 13 14 13 12 3 6 12 1 3 12 14 9 18 23 26 25 22 18 17 16 16 17 20 27 26 25 25 22 24 27 26 23 22 21 18 13 12 12 15 12 14 15
15 29 17 5 3 6 6 15 5 4 6 14 5 14 13 19 23 23 24 20 18 16 15 13 14 24 29 32 32 32 30 31 30 24 21 17 15 13 14 13 17 16 16 15
38 20 22 4 9 13 11 12 0 10 10 9 8 25 21 17 16 19 20 19 16 17 17 12 12 22 28 34 37 37 35 31 27 26 22 18 18 19 16 15 13 15 17 19
35 21 15 18 22 11 19 10 7 10 16 2 10 12 23 24 18 21 23 23 19 18 16 17 16 17 28 30 32 33 32 33 28 28 23 21 19 19 16 18 19 20 22 24
34 25 24 31 29 6 10 10 6 12 13 12 20 14 14 19 18 19 16 18 16 16 16 19 22 17 17 24 25 31 37 28 29 23 22 17 16 23 19 23 26 26 29 35
37 9 18 29 8 11 7 6 11 12 8 19 11 13 17 10 15 19 19 23 21 20 16 16 19 19 14 19 23 28 30 22 19 25 23 25 21 17 16 21 22 24 25 29
28 27 23 20 24 12 18 23 16 14 14 11 9 13 16 23 26 26 23 27 21 23 21 15 14 17 18 16 21 20 25 17 16 14 19 19 12 13 17 16 18 22 22 25
23 33 39 28 33 22 30 31 21 10 16 7 10 13 11 21 29 26 18 17 19 26 24 14 12 10 11 15 18 18 16 13 15 23 18 21 27 17 17 23 24 22 21 21
27 21 36 16 15 20 20 19 14 23 13 18 8 8 24 27 26 29 27 28 31 30 26 21 18 17 19 20 21 18 15 14 10 14 14 21 25 31 31 26 23 23 26 27
14 19 25 17 18 8 16 7 14 17 10 14 7 8 10 23 28 29 31 37 36 33 29 27 23 23 21 21 24 24 21 16 11 5 3 6 11 14 17 17 22 28 27 29
19 22 20 19 21 11 11 20 18 12 10 17 15 7 12 10 25 35 37 39 41 39 35 30 27 23 19 18 20 19 18 14 9 2 7 13 17 20 26 29 34 37 40 45
32 16 22 26 13 5 16 19 24 19 18 9 15 15 9 8 14 39 39 41 38 37 38 34 30 24 20 18 18 15 15 11 4 7 11 14 21 26 28 34 37 40 42 42
21 17 19 19 16 10 16 20 20 15 15 11 15 10 7 12 16 34 44 44 43 41 36 34 29 24 19 16 13 10 11 8 8 11 13 17 20 21 25 28 32 36 40 42
22 30 30 25 20 8 14 16 20 24 18 3 15 16 2 13 18 33 43 46 48 45 40 35 28 22 17 11 5 5 8 12 14 15 14 16 19 21 24 27 28 29 31 32
19 25 28 33 4 9 20 14 20 24 22 16 20 18 16 3 19 35 43 47 48 46 41 36 30 22 17 9 1 9 10 15 18 17 15 19 22 23 24 26 28 29 29 28
25 14 17 25 16 20 22 19 24 27 18 18 22 23 7 4 16 36 44 49 49 47 40 35 29 24 20 13 5 11 10 13 16 16 16 20 21 22 23 24 24 21 21 23
24 13 14 25 16 18 21 30 30 27 20 20 21 11 8 7 17 36 47 50 51 49 46 39 33 27 20 14 13 10 10 15 15 17 17 17 17 19 23 26 22 18 20 23
19 20 9 3 12 22 2 8 14 25 21 17 17 6 6 2 13 28 38 45 47 45 44 41 35 28 21 16 15 12 16 16 18 16 17 17 17 19 25 23 22 19 20 22
8 14 6 11 20 9 16 10 12 17 23 21 19 8 10 7 12 21 34 39 43 44 43 39 35 29 24 18 13 13 12 12 13 14 16 17 15 16 21 21 21 19 21 24
5 6 13 8 23 23 9 13 4 4 20 9 5 6 15 18 14 12 38 38 39 40 41 40 36 29 21 15 11 9 9 11 11 19 16 13 13 14 15 16 15 15 17 18
13 10 21 19 19 17 14 13 9 18 5 10 5 5 16 15 11 8 28 32 35 40 41 38 33 25 19 11 9 9 10 9 15 16 12 10 9 14 14 14 16 16 11 14
10 9 11 9 12 24 19 15 14 10 9 10 7 7 13 8 13 21 28 35 39 41 41 35 29 22 14 10 8 9 8 12 12 11 12 10 11 10 12 13 15 15 17 14
7 6 9 9 4 6 11 6 4 2 5 8 12 17 22 20 24 28 33 35 36 37 36 29 23 18 11 10 10 8 10 10 8 7 10 11 11 13 12 12 17 17 16 16
7 2 7 7 11 6 9 8 3 5 9 16 23 28 25 28 27 29 30 32 33 32 29 24 19 13 11 13 11 9 11 11 9 9 11 11 12 15 13 10 21 22 14 15
10 9 4 7 4 5 9 11 13 16 22 30 29 27 26 27 24 25 27 29 28 26 23 18 14 12 12 12 10 10 11 9 7 9 9 11 10 12 11 12 11 20 19 19
13 3 9 9 13 5 7 14 18 26 33 34 34 30 25 22 22 22 24 25 25 23 21 18 14 12 13 12 10 10 10 9 8 8 9 11 6 10 11 10 15 26 26 27
Wind_Direction_500mb
193 237 193 50 17 50 6 302 290 162 133 245 245 272 187 182 206 202 207 211 216 234 242 243 245 219 212 214 207 203 202 203 204 211 221 225 218 243 248 245 250 258 260 277
193 238 111 112 68 277 265 271 172 119 234 247 191 239 200 186 210 207 200 211 231 239 229 237 230 205 200 204 200 200 200 201 209 208 209 212 229 223 236 244 253 254 270 270
228 212 129 225 234 280 233 337 223 318 169 225 247 236 202 178 203 202 193 205 217 229 215 209 202 201 197 200 202 204 202 199 202 202 211 224 229 239 252 257 261 256 268 278
228 176 199 250 268 276 277 20 275 176 207 266 218 321 182 155 180 194 183 200 198 184 190 189 192 199 206 206 205 203 204 204 207 213 212 221 228 242 246 247 256 250 265 270
219 219 224 243 256 253 14 332 238 193 229 266 175 263 105 153 189 163 167 171 173 186 194 185 188 190 199 204 203 198 207 205 214 209 212 227 259 264 258 254 264 274 274 282
246 201 236 248 223 214 129 173 164 194 249 247 93 282 305 112 155 136 167 161 158 158 157 167 190 195 184 190 184 199 196 181 193 202 215 228 248 287 267 267 269 280 282 286
211 216 211 218 208 192 211 206 205 220 208 274 75 268 292 120 135 142 135 173 187 181 170 165 179 194 197 177 183 195 202 193 192 187 204 222 232 264 285 291 285 275 286 296
204 198 203 194 230 213 207 239 274 246 271 359 155 273 67 116 146 155 135 141 159 163 168 158 154 165 168 165 160 160 167 177 196 224 244 245 245 276 288 303 276 276 287 290
197 202 164 187 197 235 173 228 289 285 241 271 285 255 196 140 152 158 150 142 145 149 146 139 128 118 104 113 114 118 129 137 181 210 243 267 264 265 279 287 286 275 279 283
211 156 172 152 164 170 275 15 218 212 265 259 165 263 329 159 168 166 164 149 149 148 144 138 127 119 112 102 96 94 97 103 101 68 20 305 301 292 289 294 285 290 297 295
233 243 147 180 206 205 172 223 230 300 297 310 273 57 55 93 169 170 170 157 156 152 150 146 138 130 120 107 96 92 86 86 78 11 298 296 301 306 303 293 293 292 289 286
215 237 168 196 101 336 274 278 208 231 196 237 312 308 106 88 166 166 165 163 159 158 154 153 149 141 129 111 97 86 78 64 16 309 311 313 302 297 297 296 295 296 296 296
176 228 193 180 179 188 228 206 250 285 308 263 298 53 84 112 157 163 162 164 162 162 159 159 156 149 135 123 110 84 64 39 8 340 325 310 305 308 306 304 304 303 301 300
226 226 233 208 210 170 190 206 219 249 272 164 270 329 94 146 172 170 167 168 167 169 167 168 165 162 152 141 106 12 17 3 348 338 334 329 325 321 321 321 320 319 317 315
227 229 223 247 286 259 270 223 212 235 267 278 339 313 331 57 184 183 177 173 172 174 177 178 175 169 161 157 186 318 342 342 336 335 334 324 321 320 319 319 321 321 322 320
213 220 198 216 219 237 237 236 230 227 244 260 274 282 64 98 179 179 184 181 182 181 184 187 181 179 176 177 203 287 314 319 323 318 313 314 318 321 320 319 318 323 326 326
187 198 205 226 201 226 240 234 230 218 229 251 269 36 123 167 198 192 187 188 191 189 185 188 189 188 185 188 247 276 295 307 311 312 314 318 320 322 319 320 324 328 328 327
184 191 202 260 177 223 147 14 231 235 247 234 252 235 236 256 195 199 197 193 193 192 189 187 186 186 188 206 248 277 295 304 307 304 307 313 320 322 321 328 330 331 335 331
227 194 170 223 219 245 177 174 198 210 251 227 238 225 195 164 146 179 193 196 195 195 192 187 185 179 196 221 255 280 290 288 291 292 297 309 318 327 325 331 334 340 339 336
147 262 252 189 266 252 34 111 126 243 242 91 264 230 186 185 227 137 185 186 188 188 185 178 176 172 189 222 261 274 264 276 278 288 297 300 313 312 309 315 331 328 354 339
199 244 240 222 250 262 108 132 161 218 77 86 74 167 188 208 29 102 161 171 176 174 172 169 167 168 179 229 252 250 265 282 300 302 314 319 311 309 308 324 335 329 335 327
223 232 211 238 256 245 142 144 220 61 99 80 84 138 163 149 122 131 145 152 159 161 164 164 163 169 197 235 253 256 272 283 303 309 329 326 297 298 301 326 308 310 307 328
239 319 332 280 45 98 172 51 109 345 137 140 133 131 137 129 128 135 141 147 155 161 160 162 166 169 187 245 246 229 248 279 286 289 288 289 299 303 307 314 305 314 329 334
181 212 263 269 146 166 186 203 204 167 162 141 136 133 133 130 132 136 144 151 157 162 163 166 168 180 219 251 263 250 276 293 303 290 294 301 307 303 300 304 299 312 329 327
37 176 207 246 176 201 191 187 173 154 142 136 131 128 132 136 143 154 160 163 166 169 169 174 185 207 222 248 253 260 282 295 288 279 282 293 298 301 307 306 288 311 325 320
184 138 244 30 41 338 38 179 169 160 151 144 139 134 133 137 148 159 167 169 173 176 179 190 206 220 220 229 231 246 257 267 254 278 285 282 302 309 313 313 309 320 331 334
Wind_Speed_850mb
11 19 13 14 13 12 3 6 12 1 3 12 14 9 18 23 26 25 22 18 17 16 16 17 20 27 26 25 25 22 24 27 26 23 22 21 18 13 12 12 15 12 14 15
15 29 17 5 3 6 6 15 5 4 6 14 5 14 13 19 23 23 24 20 18 16 15 13 14 24 29 32 32 32 30 31 30 24 21 17 15 13 14 13 17 16 16 15
38 20 22 4 9 13 11 12 0 10 10 9 8 25 21 17 16 19 20 19 16 17 17 12 12 22 28 34 37 37 35 31 27 26 22 18 18 19 16 15 13 15 17 19
35 21 15 18 22 11 19 10 7 10 16 2 10 12 23 24 18 21 23 23 19 18 16 17 16 17 28 30 32 33 32 33 28 28 23 21 19 19 16 18 19 20 22 24
34 25 24 31 29 6 10 10 6 12 13 12 20 14 14 19 18 19 16 18 16 16 16 19 22 17 17 24 25 31 37 28 29 23 22 17 16 23 19 23 26 26 29 35
37 9 18 29 8 11 7 6 11 12 8 19 11 13 17 10 15 19 19 23 21 20 16 16 19 19 14 19 23 28 30 22 19 25 23 25 21 17 16 21 22 24 25 29
28 27 23 20 24 12 18 23 16 14 14 11 9 13 16 23 26 26 23 27 21 23 21 15 14 17 18 16 21 20 25 17 16 14 19 19 12 13 17 16 18 22 22 25
23 33 39 28 33 22 30 31 21 10 16 7 10 13 11 21 29 26 18 17 19 26 24 14 12 10 11 15 18 18 16 13 15 23 18 21 27 17 17 23 24 22 21 21
27 21 36 16 15 20 20 19 14 23 13 18 8 8 24 27 26 29 27 28 31 30 26 21 18 17 19 20 21 18 15 14 10 14 14 21 25 31 31 26 23 23 26 27
14 19 25 17 18 8 16 7 14 17 10 14 7 8 10 23 28 29 31 37 36 33 29 27 23 23 21 21 24 24 21 16 11 5 3 6 11 14 17 17 22 28 27 29
19 22 20 19 21 11 11 20 18 12 10 17 15 7 12 10 25 35 37 39 41 39 35 30 27 23 19 18 20 19 18 14 9 2 7 13 17 20 26 29 34 37 40 45
32 16 22 26 13 5 16 19 24 19 18 9 15 15 9 8 14 39 39 41 38 37 38 34 30 24 20 18 18 15 15 11 4 7 11 14 21 26 28 34 37 40 42 42
21 17 19 19 16 10 16 20 20 15 15 11 15 10 7 12 16 34 44 44 43 41 36 34 29 24 19 16 13 10 11 8 8 11 13 17 20 21 25 28 32 36 40 42
22 30 30 25 20 8 14 16 20 24 18 3 15 16 2 13 18 33 43 46 48 45 40 35 28 22 17 11 5 5 8 12 14 15 14 16 19 21 24 27 28 29 31 32
19 25 28 33 4 9 20 14 20 24 22 16 20 18 16 3 19 35 43 47 48 46 41 36 30 22 17 9 1 9 10 15 18 17 15 19 22 23 24 26 28 29 29 28
25 14 17 25 16 20 22 19 24 27 18 18 22 23 7 4 16 36 44 49 49 47 40 35 29 24 20 13 5 11 10 13 16 16 16 20 21 22 23 24 24 21 21 23
24 13 14 25 16 18 21 30 30 27 20 20 21 11 8 7 17 36 47 50 51 49 46 39 33 27 20 14 13 10 10 15 15 17 17 17 17 19 23 26 22 18 20 23
19 20 9 3 12 22 2 8 14 25 21 17 17 6 6 2 13 28 38 45 47 45 44 41 35 28 21 16 15 12 16 16 18 16 17 17 17 19 25 23 22 19 20 22
8 14 6 11 20 9 16 10 12 17 23 21 19 8 10 7 12 21 34 39 43 44 43 39 35 29 24 18 13 13 12 12 13 14 16 17 15 16 21 21 21 19 21 24
5 6 13 8 23 23 9 13 4 4 20 9 5 6 15 18 14 12 38 38 39 40 41 40 36 29 21 15 11 9 9 11 11 19 16 13 13 14 15 16 15 15 17 18
13 10 21 19 19 17 14 13 9 18 5 10 5 5 16 15 11 8 28 32 35 40 41 38 33 25 19 11 9 9 10 9 15 16 12 10 9 14 14 14 16 16 11 14
10 9 11 9 12 24 19 15 14 10 9 10 7 7 13 8 13 21 28 35 39 41 41 35 29 22 14 10 8 9 8 12 12 11 12 10 11 10 12 13 15 15 17 14
7 6 9 9 4 6 11 6 4 2 5 8 12 17 22 20 24 28 33 35 36 37 36 29 23 18 11 10 10 8 10 10 8 7 10 11 11 13 12 12 17 17 16 16
7 2 7 7 11 6 9 8 3 5 9 16 23 28 25 28 27 29 30 32 33 32 29 24 19 13 11 13 11 9 11 11 9 9 11 11 12 15 13 10 21 22 14 15
10 9 4 7 4 5 9 11 13 16 22 30 29 27 26 27 24 25 27 29 28 26 23 18 14 12 12 12 10 10 11 9 7 9 9 11 10 12 11 12 11 20 19 19
13 3 9 9 13 5 7 14 18 26 33 34 34 30 25 22 22 22 24 25 25 23 21 18 14 12 13 12 10 10 10 9 8 8 9 11 6 10 11 10 15 26 26 27
Wind_Direction_850mb
193 237 193 50 17 50 6 302 290 162 133 245 245 272 187 182 206 202 207 211 216 234 242 243 245 219 212 214 207 203 202 203 204 211 221 225 218 243 248 245 250 258 260 277
193 238 111 112 68 277 265 271 172 119 234 247 191 239 200 186 210 207 200 211 231 239 229 237 230 205 200 204 200 200 200 201 209 208 209 212 229 223 236 244 253 254 270 270
228 212 129 225 234 280 233 337 223 318 169 225 247 236 202 178 203 202 193 205 217 229 215 209 202 201 197 200 202 204 202 199 202 202 211 224 229 239 252 257 261 256 268 278
228 176 199 250 268 276 277 20 275 176 207 266 218 321 182 155 180 194 183 200 198 184 190 189 192 199 206 206 205 203 204 204 207 213 212 221 228 242 246 247 256 250 265 270
219 219 224 243 256 253 14 332 238 193 229 266 175 263 105 153 189 163 167 171 173 186 194 185 188 190 199 204 203 198 207 205 214 209 212 227 259 264 258 254 264 274 274 282
246 201 236 248 223 214 129 173 164 194 249 247 93 282 305 112 155 136 167 161 158 158 157 167 190 195 184 190 184 199 196 181 193 202 215 228 248 287 267 267 269 280 282 286
211 216 211 218 208 192 211 206 205 220 208 274 75 268 292 120 135 142 135 173 187 181 170 165 179 194 197 177 183 195 202 193 192 187 204 222 232 264 285 291 285 275 286 296
204 198 203 194 230 213 207 239 274 246 271 359 155 273 67 116 146 155 135 141 159 163 168 158 154 165 168 165 160 160 167 177 196 224 244 245 245 276 288 303 276 276 287 290
197 202 164 187 197 235 173 228 289 285 241 271 285 255 196 140 152 158 150 142 145 149 146 139 128 118 104 113 114 118 129 137 181 210 243 267 264 265 279 287 286 275 279 283
211 156 172 152 164 170 275 15 218 212 265 259 165 263 329 159 168 166 164 149 149 148 144 138 127 119 112 102 96 94 97 103 101 68 20 305 301 292 289 294 285 290 297 295
233 243 147 180 206 205 172 223 230 300 297 310 273 57 55 93 169 170 170 157 156 152 150 146 138 130 120 107 96 92 86 86 78 11 298 296 301 306 303 293 293 292 289 286
215 237 168 196 101 336 274 278 208 231 196 237 312 308 106 88 166 166 165 163 159 158 154 153 149 141 129 111 97 86 78 64 16 309 311 313 302 297 297 296 295 296 296 296
176 228 193 180 179 188 228 206 250 285 308 263 298 53 84 112 157 163 162 164 162 162 159 159 156 149 135 123 110 84 64 39 8 340 325 310 305 308 306 304 304 303 301 300
226 226 233 208 210 170 190 206 219 249 272 164 270 329 94 146 172 170 167 168 167 169 167 168 165 162 152 141 106 12 17 3 348 338 334 329 325 321 321 321 320 319 317 315
227 229 223 247 286 259 270 223 212 235 267 278 339 313 331 57 184 183 177 173 172 174 177 178 175 169 161 157 186 318 342 342 336 335 334 324 321 320 319 319 321 321 322 320
213 220 198 216 219 237 237 236 230 227 244 260 274 282 64 98 179 179 184 181 182 181 184 187 181 179 176 177 203 287 314 319 323 318 313 314 318 321 320 319 318 323 326 326
187 198 205 226 201 226 240 234 230 218 229 251 269 36 123 167 198 192 187 188 191 189 185 188 189 188 185 188 247 276 295 307 311 312 314 318 320 322 319 320 324 328 328 327
184 191 202 260 177 223 147 14 231 235 247 234 252 235 236 256 195 199 197 193 193 192 189 187 186 186 188 206 248 277 295 304 307 304 307 313 320 322 321 328 330 331 335 331
227 194 170 223 219 245 177 174 198 210 251 227 238 225 195 164 146 179 193 196 195 195 192 187 185 179 196 221 255 280 290 288 291 292 297 309 318 327 325 331 334 340 339 336
147 262 252 189 266 252 34 111 126 243 242 91 264 230 186 185 227 137 185 186 188 188 185 178 176 172 189 222 261 274 264 276 278 288 297 300 313 312 309 315 331 328 354 339
199 244 240 222 250 262 108 132 161 218 77 86 74 167 188 208 29 102 161 171 176 174 172 169 167 168 179 229 252 250 265 282 300 302 314 319 311 309 308 324 335 329 335 327
223 232 211 238 256 245 142 144 220 61 99 80 84 138 163 149 122 131 145 152 159 161 164 164 163 169 197 235 253 256 272 283 303 309 329 326 297 298 301 326 308 310 307 328
239 319 332 280 45 98 172 51 109 345 137 140 133 131 137 129 128 135 141 147 155 161 160 162 166 169 187 245 246 229 248 279 286 289 288 289 299 303 307 314 305 314 329 334
181 212 263 269 146 166 186 203 204 167 162 141 136 133 133 130 132 136 144 151 157 162 163 166 168 180 219 251 263 250 276 293 303 290 294 301 307 303 300 304 299 312 329 327
37 176 207 246 176 201 191 187 173 154 142 136 131 128 132 136 143 154 160 163 166 169 169 174 185 207 222 248 253 260 282 295 288 279 282 293 298 301 307 306 288 311 325 320
184 138 244 30 41 338 38 179 169 160 151 144 139 134 133 137 148 159 167 169 173 176 179 190 206 220 220 229 231 246 257 267 254 278 285 282 302 309 313 313 309 320 331 334